Weather in Gartz

Germany     53°12′29″N   14°23′25″E
temp.,
°C
wind,
m/s
gust,
m/s
humid.,
%
clouds,
%
prec.,
mm/h
press.,
hPa
HPBL,
m
8 march, mon
mon801:00−1nne228968 0.4 101928
04:00−2nnw237243 0.0 102024
07:00−2nw237621 0.0 102169
10:00+3n46530 0.0 10231296
13:00+4n45430 0.0 10231464
16:00+3n45470 0.0 10231133
19:00−2n23722 0.0 102338
22:00−3ene227659 0.0 102421
9 march, tue
tue901:00−3se127471 0.0 102321
04:00−3sse127462 0.0 102221
07:00−3se227076 0.0 102248
10:00+1sse224651 0.0 1022509
13:00+4s223447 0.0 10211135
16:00+4sse123615 0.0 10191258
19:00−1se23527 0.0 101921
22:00−2se23530 0.0 102024
10 march, wed
wed1001:00−2se23530 0.0 101927
04:00−2se225267 0.0 101921
07:00−2se235250 0.0 101947
10:00+3sse34450 0.0 1019572
13:00+6s45470 0.0 10181219
16:00+5s4666100 0.0 1016789
19:00+2s4885100 0.0 1015204
22:00+3s51188100 0.0 1014365
11 march, thu
thu1101:00+3s71391100 0.6 1011526
04:00+3s71393100 0.4 1006533
07:00+4s81494100 2.3 1002563
10:00+6ssw91594100 6.2 999624
13:00+9sw81689100 7.8 996907
16:00+9wsw111787100 4.1 9941100
19:00+7sw7178493 4.9 996751
22:00+6wsw7168177 0.1 9971047
12 march, fri
fri1201:00+5wsw9178359 0.1 9971113
04:00+4wsw9187893 0.0 9971168
07:00+5w9178096 0.2 10011441
10:00+6w11176336 0.1 10041892
13:00+7w11166168 0.4 10061905
16:00+8w8136085 0.4 10061752
19:00+5sw4117586 0.4 1007329
22:00+4sw5137898 0.0 1007378